Location: Passau
(48.5830°N, 13.4830°E)
Time: 21:32:58
(UTC+02:00)

S-56A Canister/Altair - Pass Details

Date: 18 May 2024
Orbit: 637 x 2489 km, 38.9° (Epoch: 16 June)

Event Time Altitude Azimuth Distance (km) Brightness Sun altitude
Rises 09:25:40 0° 236° (WSW) 5,256 11.5 38.1°
Reaches altitude 10° 09:29:53 10° 229° (SW) 3,953 11.0 38.8°
Maximum altitude 09:38:24 35° 169° (S) 1,937 10.3 40.1°
Drops below altitude 10° 09:44:23 10° 106° (ESE) 2,754 11.6 41.1°
Sets 09:46:48 0° 97° (E) 3,508 11.7 41.4°
